CAPE
973 1534 2147 1999 1834 1751 1671 1992 2370 2487 2228 2080 1609 1531 1246 1103 1179 187 209 191 229 213 165 421 377 626 517 592 440 503 511 419 315 179 124 291 197 132 91 179 347 264 438
1294 1395 2156 2141 1854 1638 1654 2061 2401 2308 2355 2072 1992 1702 1500 1307 806 243 346 423 370 336 522 675 652 800 653 638 331 465 393 163 2 7 0 0 52 1 2 49 391 145 284
1117 1239 1232 2148 2219 2266 2173 2113 2235 2283 2305 1887 2051 1807 1483 1419 951 512 262 384 910 1008 922 1073 804 681 559 364 215 194 141 39 0 0 0 0 0 0 0 0 0 0 1
965 1158 1342 2075 2088 2049 2143 2119 2217 2292 2010 2051 2115 1904 1653 1353 1264 932 517 392 1081 930 878 1117 913 587 371 46 141 87 18 0 0 0 0 0 0 0 0 0 1 1 0
867 1311 1108 1760 1819 1857 1916 1992 1997 1982 2067 1792 1844 1874 1676 1416 1225 743 488 611 1164 1015 922 1021 649 458 263 43 7 7 0 0 0 0 0 0 0 0 2 0 0 0 2
689 1238 1512 1551 1622 1547 1348 1850 1670 1758 1682 1638 1533 1506 1443 1272 903 951 1330 1201 1262 871 792 847 363 95 16 0 0 0 0 0 0 0 0 0 5 0 0 0 0 1 4
356 780 1365 1469 1536 1604 1521 1410 1328 1595 1775 1615 1595 1246 1193 1026 1041 1190 1023 1020 1125 758 692 409 320 28 0 0 0 0 0 0 0 0 0 0 0 1 4 3 2 2 4
132 585 888 1161 1339 1479 1512 1454 1491 1587 1403 1368 1398 1216 1190 1231 1170 962 933 873 930 743 523 311 329 127 27 64 58 24 0 0 0 0 1 6 0 1 5 4 2 1 2
30 96 475 1012 874 911 1068 1264 1458 1501 1547 1567 1245 1122 1074 1305 1409 1101 1142 906 967 778 688 486 470 247 127 146 107 184 14 0 0 0 0 7 0 4 4 1 1 3 3
0 0 61 333 894 860 940 934 1005 1100 1098 1139 1008 758 718 569 995 1094 999 797 1006 1008 603 514 522 486 427 309 287 242 7 0 0 0 0 17 15 1 4 1 1 3 3
0 0 3 34 221 733 979 897 553 612 471 171 144 114 319 481 566 597 373 353 640 904 732 537 661 633 359 150 152 145 5 0 0 0 0 14 0 3 6 1 0 1 1
0 0 0 0 33 147 406 677 727 354 300 205 134 140 228 157 196 233 259 194 425 624 582 595 598 535 143 0 10 0 5 0 1 5 0 10 0 3 13 2 1 1 0
0 0 0 0 0 18 317 269 438 444 242 28 47 158 230 331 689 529 454 410 510 243 353 258 151 29 7 0 0 0 0 0 3 10 6 6 0 114 48 0 0 1 1
0 0 0 0 0 4 32 226 264 338 103 40 28 60 205 503 571 372 157 210 691 524 304 248 283 114 51 10 0 0 0 0 0 5 9 0 0 0 185 152 25 0 1
0 0 0 0 0 0 61 43 504 384 223 42 14 10 0 63 290 334 258 404 817 638 720 281 230 159 279 123 16 0 0 0 0 0 0 0 0 0 0 250 228 145 8
0 0 0 0 0 0 53 70 123 317 321 179 114 62 0 0 38 87 102 161 240 435 615 264 255 231 78 110 155 9 2 0 0 0 0 0 0 0 27 14 369 178 178
0 0 0 0 0 0 0 56 119 279 220 283 171 222 101 42 45 51 98 127 123 125 187 559 224 212 328 182 106 151 12 1 0 0 0 0 0 0 0 0 6 204 338
0 0 0 0 0 0 0 16 155 586 470 434 323 330 263 143 64 25 33 72 126 180 227 281 499 517 473 608 258 209 78 6 3 0 0 0 0 0 0 0 5 99 321
0 0 0 0 0 0 0 1 256 423 414 383 477 396 342 234 112 68 40 59 64 169 199 335 454 371 436 431 362 315 112 53 32 11 2 0 0 0 0 0 0 0 41
4 3 0 0 0 0 0 0 12 95 356 455 328 236 169 121 66 68 48 61 86 148 164 221 218 346 315 357 136 159 133 69 67 40 5 0 0 0 0 0 0 0 0
15 9 19 0 0 0 0 0 1 63 182 341 313 237 147 144 127 183 160 101 139 123 115 123 75 193 183 222 123 109 45 39 21 32 26 1 0 1 0 0 6 19 4
7 8 8 86 11 0 0 93 146 310 330 443 417 305 318 275 286 268 282 253 275 213 129 156 187 117 210 159 128 114 47 30 39 3 4 2 14 18 0 0 4 4 15
3 7 16 24 119 144 162 325 494 407 379 385 338 243 369 284 258 203 281 264 320 318 253 284 281 213 127 129 173 96 53 14 15 10 0 0 1 18 6 1 0 7 33
8 19 18 36 30 65 224 157 226 287 456 467 394 335 342 185 117 78 83 108 244 385 369 346 319 283 248 140 172 129 102 37 10 10 12 0 9 4 6 0 2 18 52
2 40 55 46 52 122 69 72 97 194 318 264 164 112 85 76 36 19 20 30 74 207 261 247 260 249 249 180 112 58 51 53 43 20 0 0 9 0 29 14 58 82 99
1 2 42 46 59 42 44 38 37 24 126 125 73 85 102 78 46 5 13 26 66 54 149 252 246 147 149 63 80 77 48 28 37 17 2 42 0 3 4 20 43 97 109
CIN
-19 -16 -4 -3 -5 0 0 -1 -1 -1 -2 0 -1 0 -1 -2 0 -201 -186 -194 -182 -194 -198 -95 -99 -49 -73 -59 -79 -55 -58 -73 -83 -119 -156 -93 -125 -154 -171 -115 -77 -89 -69
0 -9 -2 -2 -1 0 -1 0 -1 -2 -1 -1 -2 0 0 -2 -4 -147 -116 -84 -94 -118 -79 -52 -55 -32 -41 -48 -113 -80 -80 -160 -30 -68 0 0 -249 -23 -30 -256 -57 -135 -75
-1 -2 -5 -2 0 0 0 0 -1 -1 -1 -5 -4 -3 -4 -2 -5 -35 -127 -101 -18 -8 -22 -15 -34 -43 -70 -103 -130 -144 -183 -259 0 0 0 0 0 0 0 0 0 0 0
-7 0 0 -6 -1 0 -2 0 0 0 -2 -3 -3 -5 -5 -1 -2 -1 -33 -67 -4 -19 -24 -8 -20 -61 -103 -73 -182 -222 -247 0 0 0 0 0 0 0 0 0 0 0 0
-15 0 0 -13 -5 -2 -1 -2 -1 -1 0 -3 -2 -1 -1 -3 -3 -3 -30 -26 -1 -9 -26 -15 -64 -99 -139 -286 -90 -76 0 0 0 0 0 0 0 0 0 0 0 0 -2
-28 0 -8 -11 -4 -5 -9 -2 -4 -2 -2 -3 -3 -2 -2 -2 -4 -2 0 0 -1 -17 -43 -42 -133 -238 -42 -1 0 0 0 0 0 0 0 0 -2 0 0 0 0 0 0
-56 -12 0 -7 -3 -2 -3 -5 -7 -3 -3 -2 -2 -3 -1 -3 -1 -2 -1 -2 -2 -11 -40 -92 -118 -259 0 0 0 0 0 0 0 0 -1 0 0 0 0 0 0 0 0
-99 -12 0 -9 -5 -2 -3 -5 -4 -2 -2 -2 -2 -3 -1 -1 -1 -3 -3 -4 -2 0 -23 -84 -88 -174 -142 -246 -281 -20 0 0 0 0 -1 0 0 0 0 0 0 0 0
-122 -132 -10 -1 -3 -21 -7 -5 -2 -1 0 0 -10 -12 -14 -4 -1 -1 -1 -2 -2 -6 -2 -21 -36 -105 -160 -153 -182 -162 -14 0 0 0 0 -1 0 0 0 0 0 0 0
0 0 -110 -30 -3 -1 0 -15 -9 -11 -16 -13 -19 -29 -28 -28 -8 -4 -4 -4 -1 -1 -12 -14 -8 -27 -57 -86 -89 -104 -10 0 0 0 0 -16 -20 0 0 0 0 0 0
0 0 -4 -36 -28 -1 -6 -4 -25 -19 -24 -65 -94 -135 -38 -6 -1 -2 -8 -18 -16 -5 -6 -7 -1 -8 -28 -103 -115 -114 -9 0 0 0 0 -53 0 0 0 0 0 0 0
0 0 0 0 -44 -21 -2 -3 0 0 -4 -10 -48 -55 -31 -46 -45 -32 -34 -53 -34 -14 -12 -7 -2 -2 -87 0 -2 0 -9 0 0 0 0 -50 0 0 0 0 0 0 0
0 0 0 0 0 -54 -1 -3 -1 -1 -4 -49 -39 -38 -27 -8 -6 -2 -1 -16 -5 -40 -2 -4 -31 -10 -28 0 0 0 0 0 0 0 -13 -55 0 -154 -62 0 0 0 0
0 0 0 0 0 -1 -40 -3 -13 -1 -10 -49 -69 -50 -25 -14 -18 -34 -81 -46 -6 -2 -9 -19 -8 -37 -119 -37 0 0 -1 0 0 0 -16 0 0 0 -56 -113 -19 0 0
0 0 0 0 0 0 -41 -46 -3 -2 -1 -29 -73 -42 0 -65 -38 -24 -58 -56 -13 -9 -1 -23 -21 -44 -2 -48 -2 0 0 0 0 0 0 0 0 0 0 -15 -36 -76 0
0 0 0 0 0 0 -40 -54 -30 -1 0 -4 -1 -11 0 0 -57 -31 -10 -22 -31 -16 -3 -26 -3 -16 -2 -8 -45 0 -4 0 0 0 0 0 0 0 -31 -4 0 -31 -54
0 0 0 0 0 0 0 -58 -46 -5 -4 0 0 0 -16 -21 -33 -37 -14 -19 -19 -34 -11 -14 -7 0 -7 -29 0 -1 -32 -6 0 0 0 0 0 0 0 0 -4 -11 -1
0 0 0 0 0 0 0 -8 -14 -1 0 0 -2 -1 0 -4 -22 -33 -29 -30 -9 0 0 0 -1 -1 -4 -1 -20 -6 -2 -15 -2 0 0 0 0 0 0 0 -5 -22 -2
0 0 0 0 0 0 0 0 -3 0 0 0 0 0 -1 -7 -22 -27 -56 -46 -37 0 -2 0 -4 -1 -2 -6 -4 0 -14 -7 -2 -4 -1 0 0 0 0 0 0 0 -25
0 0 0 0 0 0 0 0 -4 -1 -2 0 -4 -13 -26 -40 -53 -42 -46 -33 -16 -1 -1 -1 -1 0 0 0 -2 -1 -1 -4 -5 0 -2 0 0 0 0 0 0 0 0
0 0 0 0 0 0 0 0 0 0 -6 -5 -6 -23 -36 -45 -40 -15 -7 -9 -2 -3 -3 0 -3 0 -2 0 -2 -1 -1 0 -2 -2 -4 0 -1 -4 0 0 -173 -86 -24
-8 -2 0 0 -1 0 0 -1 -1 -1 -6 -3 -1 -24 -31 -34 -22 -10 -1 0 0 0 0 -1 0 -6 -1 -1 0 -1 -1 -1 0 0 -21 -10 -4 -21 0 0 -114 -130 -117
-3 -12 0 -1 0 -3 -10 -1 -2 -3 -22 -15 -18 -48 -21 -29 -15 -16 -2 -1 0 0 0 0 -1 -1 -2 -4 -1 -1 -1 0 -5 -2 0 0 -17 -7 -15 -16 -10 -128 -102
0 0 -2 -1 -1 -2 0 -11 -26 -14 0 -2 -7 -12 -10 -34 -45 -33 -50 -31 -1 0 0 0 0 -1 -1 -1 -1 -1 -4 0 -1 -1 -2 0 -19 -13 -9 0 -94 -109 -117
0 0 0 0 -1 -2 -46 -76 -47 -48 -15 -27 -49 -51 -52 -51 -40 -24 -58 -41 -38 -1 -1 0 0 -1 0 0 -2 0 -3 -2 0 -1 -1 0 -8 0 -4 -53 -41 -103 -75
0 0 0 -4 -6 -8 -11 -15 -44 -46 -33 -45 -57 -47 -21 -5 -14 -5 -6 -6 -2 -8 -1 0 0 -3 0 -2 -1 -1 0 -10 0 0 -6 0 0 0 0 -20 -64 -87 -38
Wind_Speed
16 21 18 18 20 17 21 28 29 26 24 25 24 23 21 20 18 17 17 15 12 12 11 9 9 9 11 11 11 7 11 12 14 15 14 14 15 16 nan 14 14 19 18
19 22 23 20 20 18 16 19 25 30 29 27 26 24 23 23 19 18 16 16 13 12 12 11 10 14 14 16 14 13 13 13 nan nan nan nan nan nan nan nan 17 18 19
22 22 24 21 20 20 19 20 18 18 20 25 30 27 28 26 25 18 16 14 11 9 12 13 14 15 16 19 14 15 14 nan nan nan nan nan nan nan nan nan nan nan nan
23 22 20 26 21 20 21 21 20 19 18 18 19 25 30 27 26 24 18 15 13 16 20 21 18 19 18 nan 14 nan nan nan nan nan nan nan nan nan nan nan nan nan nan
28 27 26 29 24 21 21 22 23 22 21 19 19 19 19 24 29 29 23 19 17 18 17 23 23 23 22 nan nan nan nan nan nan nan nan nan nan nan nan nan nan nan nan
33 34 34 31 27 24 23 23 22 22 23 22 19 18 19 21 21 25 27 26 25 23 26 28 26 nan nan nan nan nan nan nan nan nan nan nan nan nan nan nan nan nan nan
38 36 34 37 32 28 26 24 24 24 25 25 23 19 20 20 19 20 24 30 34 30 30 30 29 nan nan nan nan nan nan nan nan nan nan nan nan nan nan nan nan nan nan
41 40 37 39 35 32 30 27 26 26 27 26 26 22 22 21 20 19 23 25 30 33 34 31 30 29 nan nan nan nan nan nan nan nan nan nan nan nan nan nan nan nan nan
nan nan 41 39 36 36 34 33 33 31 30 29 28 26 25 25 25 21 23 24 26 28 29 35 34 32 30 27 25 27 nan nan nan nan nan nan nan nan nan nan nan nan nan
nan nan nan 43 39 37 38 39 37 36 36 34 32 30 29 32 28 26 25 27 26 30 35 35 32 34 33 31 31 29 nan nan nan nan nan nan nan nan nan nan nan nan nan
nan nan nan nan 42 44 42 43 43 41 39 39 37 36 36 35 33 29 31 30 30 32 35 38 35 33 35 35 36 36 nan nan nan nan nan nan nan nan nan nan nan nan nan
nan nan nan nan nan 43 43 44 42 43 43 42 41 40 40 37 35 35 37 39 35 34 37 38 38 40 39 nan nan nan nan nan nan nan nan nan nan nan nan nan nan nan nan
nan nan nan nan nan nan 47 48 47 45 48 nan nan 45 40 39 40 39 42 43 36 35 35 35 38 nan nan nan nan nan nan nan nan nan nan nan nan 30 nan nan nan nan nan
nan nan nan nan nan nan nan 41 45 48 48 nan nan nan 48 46 47 39 39 35 41 39 31 34 35 36 nan nan nan nan nan nan nan nan nan nan nan nan 28 31 nan nan nan
nan nan nan nan nan nan nan nan 41 41 48 nan nan nan nan nan 41 44 43 41 38 39 33 37 34 33 31 31 nan nan nan nan nan nan nan nan nan nan nan 29 30 30 nan
nan nan nan nan nan nan nan nan 41 42 44 48 52 nan nan nan nan nan 46 41 41 39 35 38 38 37 nan 37 37 nan nan nan nan nan nan nan nan nan nan nan 29 30 29
nan nan nan nan nan nan nan nan 47 44 46 48 49 50 52 nan nan nan nan 49 47 48 41 44 38 41 39 41 32 36 nan nan nan nan nan nan nan nan nan nan nan 30 31
nan nan nan nan nan nan nan nan 55 52 49 48 50 50 50 52 nan nan nan nan 56 53 49 47 44 42 40 36 36 37 nan nan nan nan nan nan nan nan nan nan nan nan 32
nan nan nan nan nan nan nan nan 59 58 54 49 47 49 45 48 52 nan nan nan nan 58 56 53 48 44 43 46 43 42 44 nan nan nan nan nan nan nan nan nan nan nan nan
nan nan nan nan nan nan nan nan nan nan 60 54 50 47 50 49 nan nan nan nan nan 60 60 58 51 49 48 50 51 48 48 nan nan nan nan nan nan nan nan nan nan nan nan
nan nan nan nan nan nan nan nan nan nan 61 59 56 50 48 52 50 48 55 57 56 57 58 56 nan 50 51 53 57 54 nan nan nan nan nan nan nan nan nan nan nan nan nan
nan nan nan nan nan nan nan nan 69 66 64 64 61 54 52 50 52 51 49 51 54 55 53 54 52 54 51 51 53 53 nan nan nan nan nan nan nan nan nan nan nan nan nan
nan nan nan nan 65 75 78 70 65 72 67 67 63 57 53 49 49 49 46 46 46 53 52 49 50 48 50 52 50 nan nan nan nan nan nan nan nan nan nan nan nan nan nan
nan nan nan nan nan nan 42 43 44 57 61 61 64 57 56 62 61 nan nan 48 42 45 46 47 46 47 48 49 53 52 46 nan nan nan nan nan nan nan nan nan nan nan nan
nan nan nan nan nan 27 nan nan nan 51 49 57 55 62 nan nan nan nan nan nan nan 43 43 45 46 46 46 46 49 nan nan nan nan nan nan nan nan nan nan nan nan nan nan
nan nan nan nan nan nan nan nan nan nan 44 43 nan nan 48 nan nan nan nan nan nan nan 44 44 42 41 44 nan nan nan nan nan nan nan nan nan nan nan nan nan nan nan 52
Wind_Direction
254 286 289 292 292 288 271 261 267 273 276 281 281 285 288 288 288 288 287 285 297 300 311 310 292 293 306 304 287 297 300 295 283 282 265 257 262 267 nan 272 301 284 292
240 288 287 293 298 296 294 281 273 273 274 279 283 283 283 281 279 287 294 291 295 305 307 300 272 282 293 281 285 287 295 295 nan nan nan nan nan nan nan nan 262 281 282
242 257 293 290 293 293 290 289 288 290 294 293 282 284 283 286 286 280 286 296 296 302 296 299 288 279 279 265 282 289 293 nan nan nan nan nan nan nan nan nan nan nan nan
238 251 281 293 290 292 289 285 284 288 293 290 291 281 277 278 281 280 278 279 277 284 280 285 283 278 266 nan 280 nan nan nan nan nan nan nan nan nan nan nan nan nan nan
237 232 265 288 287 287 288 286 288 288 283 278 282 290 288 281 278 277 278 275 268 270 278 276 270 271 267 nan nan nan nan nan nan nan nan nan nan nan nan nan nan nan nan
238 244 258 272 275 281 285 285 287 287 285 281 277 276 282 285 288 279 276 271 268 269 271 273 277 nan nan nan nan nan nan nan nan nan nan nan nan nan nan nan nan nan nan
246 243 240 266 266 269 275 276 278 282 282 283 277 273 268 275 274 278 279 270 270 272 274 274 275 nan nan nan nan nan nan nan nan nan nan nan nan nan nan nan nan nan nan
243 248 249 266 265 264 270 269 268 269 268 269 273 277 278 279 280 274 273 280 284 278 273 272 275 277 nan nan nan nan nan nan nan nan nan nan nan nan nan nan nan nan nan
nan nan 246 248 265 266 261 265 263 262 268 271 275 275 277 278 274 276 279 284 290 291 280 270 270 273 276 274 268 270 nan nan nan nan nan nan nan nan nan nan nan nan nan
nan nan nan 244 248 258 265 268 266 268 265 263 262 264 271 271 271 275 278 285 287 292 291 286 281 272 269 266 264 265 nan nan nan nan nan nan nan nan nan nan nan nan nan
nan nan nan nan 248 251 251 261 265 263 263 263 261 260 258 265 272 274 277 276 287 289 290 290 289 289 277 265 265 263 nan nan nan nan nan nan nan nan nan nan nan nan nan
nan nan nan nan nan 255 258 260 263 264 264 265 267 264 262 264 265 268 271 280 282 286 285 288 287 289 284 nan nan nan nan nan nan nan nan nan nan nan nan nan nan nan nan
nan nan nan nan nan nan 261 264 263 260 260 nan nan 260 258 255 256 261 261 267 272 277 277 282 283 nan nan nan nan nan nan nan nan nan nan nan nan 279 nan nan nan nan nan
nan nan nan nan nan nan nan 270 267 268 266 nan nan nan 259 265 260 255 251 262 272 273 278 277 278 282 nan nan nan nan nan nan nan nan nan nan nan nan 280 284 nan nan nan
nan nan nan nan nan nan nan nan 272 271 271 nan nan nan nan nan 256 257 258 254 256 264 264 273 276 279 282 284 nan nan nan nan nan nan nan nan nan nan nan 277 285 285 nan
nan nan nan nan nan nan nan nan 275 271 268 268 268 nan nan nan nan nan 261 263 264 251 257 269 270 268 nan 284 284 nan nan nan nan nan nan nan nan nan nan nan 279 281 284
nan nan nan nan nan nan nan nan 272 272 266 267 270 266 263 nan nan nan nan 257 260 260 260 260 259 267 270 266 275 282 nan nan nan nan nan nan nan nan nan nan nan 282 281
nan nan nan nan nan nan nan nan 268 268 267 264 263 265 265 261 nan nan nan nan 255 254 260 267 262 262 266 265 268 271 nan nan nan nan nan nan nan nan nan nan nan nan 280
nan nan nan nan nan nan nan nan 269 266 264 265 265 265 268 264 259 nan nan nan nan 256 256 258 260 259 262 265 267 267 271 nan nan nan nan nan nan nan nan nan nan nan nan
nan nan nan nan nan nan nan nan nan nan 262 262 262 263 263 266 nan nan nan nan nan 257 257 261 260 260 260 264 266 269 269 nan nan nan nan nan nan nan nan nan nan nan nan
nan nan nan nan nan nan nan nan nan nan 255 257 258 258 261 260 260 265 264 260 259 258 257 259 nan 268 267 268 264 267 nan nan nan nan nan nan nan nan nan nan nan nan nan
nan nan nan nan nan nan nan nan 252 251 252 253 255 255 256 257 255 258 263 264 262 261 261 263 263 265 267 272 272 269 nan nan nan nan nan nan nan nan nan nan nan nan nan
nan nan nan nan 252 251 249 251 250 248 246 247 249 250 256 257 259 262 262 266 266 262 262 265 267 272 269 270 276 nan nan nan nan nan nan nan nan nan nan nan nan nan nan
nan nan nan nan nan nan 235 239 237 242 241 243 244 246 248 249 249 nan nan 253 266 264 262 262 264 268 269 272 272 278 281 nan nan nan nan nan nan nan nan nan nan nan nan
nan nan nan nan nan 231 nan nan nan 229 234 238 239 242 nan nan nan nan nan nan nan 254 255 258 261 264 263 265 272 nan nan nan nan nan nan nan nan nan nan nan nan nan nan
nan nan nan nan nan nan nan nan nan nan 236 236 nan nan 248 nan nan nan nan nan nan nan 247 254 259 264 267 nan nan nan nan nan nan nan nan nan nan nan nan nan nan nan 269